weather.gov     
National Weather Service

Terminal Aerodrome Forecast
NWS Homepage
This page is being discontinued on March 12, 2014.
The same data is available at this site. Please update your bookmarks.
Thank you, and we apologize for the inconvenience.
Please send an email to SR-SRH.Webmaster@noaa.gov with any concerns.


Current Version
Previous Version:    01  02  03  04  05  06  07  08  09  10  11  12  13  14  
[Printable]
191
FTUS41 KBOX 220842 AAA
TAFBOS
TAF AMD
KBOS 220842Z 2209/2312 36012KT P6SM VCSH OVC005
     FM221100 02013KT 4SM BR VCSH OVC004
     FM221900 03017KT 2SM -SHRA BR OVC015
     FM230000 03018G27KT 2SM +SHRA BR OVC008
     FM230300 03017KT 1SM +SHRA BR OVC003=




191
FTUS41 KBOX 220842 AAA
TAFBOS
TAF AMD
KBOS 220842Z 2209/2312 36012KT P6SM VCSH OVC005
     FM221100 02013KT 4SM BR VCSH OVC004
     FM221900 03017KT 2SM -SHRA BR OVC015
     FM230000 03018G27KT 2SM +SHRA BR OVC008
     FM230300 03017KT 1SM +SHRA BR OVC003=


U.S. Dept. of Commerce
NOAA National Weather Service
1325 East West Highway
Silver Spring, MD 20910
E-mail: w-nws.webmaster@noaa.gov
Page last modified: May 16, 2007
NATIONAL WEATHER SERVICE: for Safety, for Work, for Fun - FOR LIFE